FW6327 Weather Reports


Display with metric or nautical units.
time (UTC)temp
F
wind
direction
speed
MPH
gust
MPH
rain 1hr
in
rain 24hr
in
rain mn
in
humidity
%
barometer
mb
20260510051532 40 237 0.0 1.0 0.00 0.00 0.00 88 1021.5
20260510050029 40 237 0.0 2.0 0.00 0.00 0.00 88 1021.2
20260510044525 40 237 0.0 2.0 0.00 0.00 0.00 88 1021.1
20260510043022 40 237 0.0 2.0 0.00 0.00 0.00 88 1020.8
20260510041527 40 237 0.0 0.0 0.00 0.00 0.00 88 1020.9
20260510040017 39 237 0.0 0.0 0.00 0.00 0.00 88 1021.0
20260510034514 39 237 0.0 0.0 0.00 0.00 0.00 89 1021.2
20260510033010 39 237 0.0 1.0 0.00 0.00 0.00 88 1020.9
20260510031508 38 237 0.0 1.0 0.00 0.00 0.00 88 1020.8
20260510030006 38 237 0.0 1.0 0.00 0.00 0.00 88 1020.8
20260510024502 38 237 0.0 2.0 0.00 0.00 0.00 87 1020.9
20260510023001 38 237 0.0 1.0 0.00 0.00 0.00 87 1020.9
20260510021558 39 237 0.0 1.0 0.00 0.00 0.00 86 1020.6
20260510020057 40 237 0.0 1.0 0.00 0.00 0.00 86 1020.6
20260510014559 40 237 0.0 1.0 0.00 0.00 0.00 85 1020.5
20260510013104 41 237 0.0 1.0 0.00 0.00 0.00 85 1020.5
20260510011549 42 237 0.0 2.0 0.00 0.00 0.00 84 1020.4
20260510010047 43 237 0.0 1.0 0.00 0.00 0.00 82 1020.4
20260510004545 44 237 0.0 2.0 0.00 0.00 0.00 81 1020.4
20260510003041 45 237 0.0 3.0 0.00 0.00 0.00 79 1020.1
20260510001540 46 236 0.0 1.0 0.00 0.00 0.00 77 1020.0
20260510000037 48 236 0.0 3.0 0.00 0.00 0.00 75 1019.6
20260509234536 50 236 2.0 3.0 0.00 0.00 0.00 71 1019.2
20260509233026 50 240 2.0 5.0 0.00 0.00 0.00 68 1019.0
20260509231522 50 220 2.0 8.0 0.00 0.00 0.00 67 1018.7
20260509230019 48 180 2.0 5.0 0.00 0.00 0.00 73 1018.3
20260509224514 49 216 0.0 1.0 0.00 0.00 0.00 72 1017.8
20260509223015 48 216 0.0 1.0 0.00 0.00 0.00 70 1017.7
20260509221509 48 216 0.0 2.0 0.00 0.00 0.00 70 1017.5
20260509220011 49 216 0.0 1.0 0.00 0.00 0.00 69 1017.2
20260509214504 50 216 0.0 2.0 0.00 0.00 0.00 61 1017.1
20260509213101 52 216 0.0 3.0 0.00 0.00 0.00 59 1016.9
20260509211556 54 216 2.0 3.0 0.00 0.00 0.00 55 1016.6
20260509210106 56 215 1.0 6.0 0.00 0.00 0.00 44 1016.6
20260509204554 58 182 3.0 8.0 0.00 0.00 0.00 43 1016.6
20260509203048 58 309 4.0 8.0 0.00 0.00 0.00 42 1016.4
20260509201544 57 295 4.0 12.0 0.00 0.00 0.00 42 1016.2
20260509200047 57 211 5.0 8.0 0.00 0.00 0.00 46 1016.2
20260509194539 56 242 4.0 8.0 0.00 0.00 0.00 47 1016.2
20260509193036 56 150 7.0 17.0 0.00 0.00 0.00 48 1016.0
20260509191533 57 184 4.0 12.0 0.00 0.00 0.00 47 1015.9
20260509190029 57 23 4.0 13.0 0.00 0.00 0.00 46 1015.6
20260509184535 56 164 3.0 20.0 0.00 0.00 0.00 48 1015.4
20260509183023 55 172 10.0 16.0 0.00 0.00 0.00 47 1015.5
20260509181519 56 214 7.0 22.0 0.00 0.00 0.00 47 1015.2
20260509180021 56 220 8.0 16.0 0.00 0.00 0.00 47 1015.3
20260509174515 56 199 5.0 19.0 0.00 0.00 0.00 44 1015.1
20260509173010 56 14 2.0 10.0 0.00 0.00 0.00 46 1015.0
20260509171506 55 55 4.0 17.0 0.00 0.00 0.00 45 1014.9
20260509170003 56 132 6.0 11.0 0.00 0.00 0.00 47 1014.9
20260509164502 55 296 6.0 18.0 0.00 0.00 0.00 47 1014.8
20260509163110 55 174 6.0 12.0 0.00 0.00 0.00 49 1014.6
20260509161556 55 142 6.0 13.0 0.00 0.00 0.00 51 1014.7
20260509160051 55 170 7.0 15.0 0.00 0.00 0.00 53 1014.4
20260509154548 54 232 4.0 16.0 0.00 0.00 0.00 56 1014.2
20260509153042 54 163 2.0 10.0 0.00 0.00 0.00 59 1014.0
20260509151539 54 223 7.0 15.0 0.00 0.00 0.00 60 1013.9
20260509150036 54 169 8.0 18.0 0.00 0.00 0.00 60 1013.5
20260509144537 54 182 5.0 13.0 0.00 0.00 0.00 59 1013.4
20260509143030 54 177 9.0 15.0 0.00 0.00 0.00 62 1013.2
20260509141537 53 225 5.0 9.0 0.00 0.00 0.00 63 1013.1
20260509140022 53 206 6.0 15.0 0.00 0.00 0.00 64 1013.0
20260509134518 52 163 6.0 17.0 0.00 0.00 0.00 66 1012.8
20260509133012 52 172 3.0 19.0 0.00 0.00 0.00 68 1012.6
20260509131510 51 205 5.0 14.0 0.00 0.00 0.00 70 1012.5
20260509130005 51 168 3.0 7.0 0.00 0.00 0.00 74 1012.4
20260509124603 49 148 2.0 8.0 0.00 0.00 0.00 80 1012.5
20260509123058 47 185 4.0 8.0 0.00 0.00 0.00 82 1012.5
20260509121549 45 173 1.0 9.0 0.00 0.00 0.00 85 1012.5
20260509120043 43 211 5.0 8.0 0.00 0.00 0.00 87 1012.6
20260509114541 42 223 5.0 11.0 0.00 0.00 0.00 88 1012.4
20260509113038 42 272 1.0 5.0 0.00 0.00 0.00 90 1012.0
20260509111541 40 212 2.0 5.0 0.00 0.00 0.00 92 1011.9
20260509110024 40 302 1.0 3.0 0.00 0.00 0.00 93 1011.7
20260509104527 38 11 0.0 0.0 0.00 0.00 0.00 93 1011.5
20260509103016 38 11 0.0 0.0 0.00 0.00 0.00 93 1011.1
20260509101514 38 11 0.0 0.0 0.00 0.00 0.00 93 1010.9
20260509100007 37 11 0.0 0.0 0.00 0.00 0.00 93 1010.5
20260509094504 37 11 0.0 0.0 0.00 0.00 0.00 93 1010.3
20260509093005 36 11 0.0 0.0 0.00 0.00 0.00 93 1009.9
20260509091608 36 11 0.0 0.0 0.00 0.00 0.00 92 1009.8
20260509090057 36 11 0.0 0.0 0.00 0.00 0.00 92 1009.6
20260509084553 37 11 0.0 0.0 0.00 0.00 0.00 92 1009.5
20260509083050 37 11 0.0 0.0 0.00 0.00 0.00 92 1009.3
20260509081557 36 11 0.0 0.0 0.00 0.00 0.00 92 1009.2
20260509080049 36 11 0.0 0.0 0.00 0.00 0.00 92 1008.9
20260509074543 36 11 0.0 0.0 0.00 0.00 0.00 92 1008.7
20260509073043 36 11 0.0 0.0 0.00 0.00 0.00 92 1008.5
20260509071531 36 11 0.0 0.0 0.00 0.00 0.00 92 1008.2
20260509070029 36 11 0.0 0.0 0.00 0.00 0.00 92 1008.1
20260509064530 36 11 0.0 0.0 0.00 0.00 0.00 92 1007.8
20260509063122 36 11 0.0 0.0 0.00 0.00 0.00 92 1007.6
20260509061534 35 11 0.0 0.0 0.00 0.00 0.00 92 1007.6
20260509060018 35 11 0.0 0.0 0.00 0.00 0.00 91 1007.3
20260509054513 34 11 0.0 0.0 0.00 0.00 0.00 91 1007.1
20260509053021 34 11 0.0 0.0 0.00 0.00 0.00 91 1006.9